FW6369 Weather Reports


Display with metric or nautical units.
time (UTC)temp
F
wind
direction
speed
MPH
gust
MPH
rain 1hr
in
rain 24hr
in
rain mn
in
humidity
%
barometer
mb
20260901100058 53 0 0.0 0.0 0.00 0.00 0.00 94 1013.6
20260901094558 52 0 0.0 1.0 0.00 0.00 0.00 94 1013.4
20260901093059 52 98 0.0 1.0 0.00 0.00 0.00 93 1013.5
20260901091600 52 0 0.0 1.0 0.00 0.00 0.00 93 1013.3
20260901090057 52 0 0.0 1.0 0.00 0.00 0.00 92 1013.3
20260901084556 53 0 0.0 1.0 0.00 0.00 0.00 93 1013.4
20260901083054 53 0 0.0 1.0 0.00 0.00 0.00 94 1013.3
20260901081600 53 0 0.0 1.0 0.00 0.00 0.00 92 1013.3
20260901080057 53 0 0.0 1.0 0.00 0.00 0.00 92 1013.4
20260901074558 53 92 0.0 1.0 0.00 0.00 0.00 92 1013.0
20260901073056 54 0 0.0 1.0 0.00 0.00 0.00 91 1013.0
20260901071600 54 0 0.0 0.0 0.00 0.00 0.00 91 1013.1
20260901064553 55 0 0.0 1.0 0.00 0.00 0.00 90 1013.1
20260901063106 56 0 0.0 0.0 0.00 0.00 0.00 90 1013.1
20260901061626 56 0 0.0 0.0 0.00 0.00 0.00 89 1013.1
20260901054559 57 0 0.0 0.0 0.00 0.00 0.00 88 1013.1
20260901053107 58 0 0.0 0.0 0.00 0.00 0.00 88 1013.2
20260901051554 58 0 0.0 0.0 0.00 0.00 0.00 87 1013.2
20260901044603 59 0 0.0 0.0 0.00 0.00 0.00 86 1013.1
20260901043101 59 0 0.0 0.0 0.00 0.00 0.00 86 1013.1
20260901041553 60 0 0.0 1.0 0.00 0.00 0.00 85 1013.0
20260901040056 60 0 0.0 1.0 0.00 0.00 0.00 84 1012.8
20260901034559 60 0 0.0 0.0 0.00 0.00 0.00 83 1012.7
20260901033055 61 0 0.0 1.0 0.00 0.00 0.00 82 1012.5
20260901031557 61 0 0.0 0.0 0.00 0.00 0.00 80 1012.4
20260901030055 62 0 0.0 2.0 0.00 0.00 0.00 78 1012.3
20260901024557 64 0 0.0 2.0 0.00 0.00 0.00 76 1012.2
20260901023056 65 217 0.0 1.0 0.00 0.00 0.00 73 1012.2
20260901021556 67 327 0.0 1.0 0.00 0.00 0.00 69 1011.8
20260901020112 70 133 0.0 1.0 0.00 0.00 0.00 63 1011.9
20260901014553 72 267 0.0 3.0 0.00 0.00 0.00 61 1011.8
20260901013059 73 0 0.0 4.0 0.00 0.00 0.00 60 1011.7
20260901011554 73 0 1.0 4.0 0.00 0.00 0.00 60 1011.7
20260901010104 73 0 0.0 0.0 0.00 0.00 0.00 61 1011.5
20260901004607 73 0 0.0 0.0 0.00 0.00 0.00 60 1011.5
20260901003056 74 0 0.0 0.0 0.00 0.00 0.00 59 1011.6
20260901001552 74 0 0.0 0.0 0.00 0.00 0.00 60 1011.5
20260901000106 74 0 0.0 0.0 0.00 0.00 0.00 59 1011.6
20260831234604 74 0 0.0 0.0 0.00 0.00 0.00 60 1011.6
20260831233102 74 0 0.0 1.0 0.00 0.00 0.00 61 1011.7
20260831231557 74 109 1.0 5.0 0.00 0.00 0.00 60 1011.7
20260831230054 75 74 0.0 2.0 0.00 0.00 0.00 60 1011.8
20260831224557 74 0 0.0 2.0 0.00 0.00 0.00 62 1011.9
20260831223058 73 252 0.0 2.0 0.00 0.00 0.00 61 1012.0
20260831221558 73 80 1.0 5.0 0.00 0.00 0.00 62 1012.3
20260831220058 74 250 0.0 2.0 0.00 0.00 0.00 60 1012.4
20260831214600 73 235 0.0 3.0 0.00 0.00 0.00 61 1012.6
20260831213059 73 0 0.0 3.0 0.00 0.00 0.00 63 1012.8
20260831211554 72 281 0.0 2.0 0.00 0.00 0.00 63 1013.0
20260831210057 71 84 0.0 2.0 0.00 0.00 0.00 64 1013.1
20260831204557 70 287 0.0 2.0 0.00 0.00 0.00 68 1013.2
20260831203108 69 0 0.0 3.0 0.00 0.00 0.00 72 1013.4
20260831201559 68 0 0.0 5.0 0.00 0.00 0.00 69 1013.4
20260831200057 68 92 0.0 3.0 0.00 0.00 0.00 70 1013.6
20260831194636 67 0 0.0 3.0 0.00 0.00 0.00 70 1013.8
20260831193100 67 0 0.0 2.0 0.00 0.00 0.00 71 1013.8
20260831191601 66 0 0.0 7.0 0.00 0.00 0.00 74 1014.0
20260831190113 66 187 0.0 3.0 0.00 0.00 0.00 72 1014.0
20260831184609 65 275 0.0 1.0 0.00 0.00 0.00 74 1014.0
20260831183109 65 250 0.0 1.0 0.00 0.00 0.00 74 1014.3
20260831181604 63 0 0.0 1.0 0.00 0.00 0.00 78 1014.2
20260831180100 60 257 0.0 1.0 0.00 0.00 0.00 81 1014.1
20260831174602 59 0 0.0 1.0 0.00 0.00 0.00 82 1014.1
20260831173105 58 0 0.0 1.0 0.00 0.00 0.00 85 1014.1
20260831171606 57 0 0.0 1.0 0.00 0.00 0.00 85 1014.0
20260831170112 57 0 0.0 1.0 0.00 0.00 0.00 85 1013.8
20260831164608 57 0 0.0 1.0 0.00 0.00 0.00 87 1013.8
20260831163058 56 0 0.0 1.0 0.00 0.00 0.00 87 1013.7
20260831161602 56 0 0.0 1.0 0.00 0.00 0.00 88 1013.6
20260831160106 56 0 0.0 0.0 0.00 0.00 0.00 89 1013.6
20260831154659 55 75 0.0 1.0 0.00 0.00 0.00 89 1013.5
20260831153054 55 32 0.0 0.0 0.00 0.00 0.00 90 1013.7
20260831151556 55 0 0.0 1.0 0.00 0.00 0.00 90 1013.5
20260831150057 55 0 0.0 1.0 0.00 0.00 0.00 91 1013.4
20260831144555 55 0 0.0 1.0 0.00 0.00 0.00 91 1013.0
20260831143112 54 0 0.0 0.0 0.00 0.00 0.00 92 1012.8
20260831141614 54 0 0.0 1.0 0.00 0.00 0.00 92 1012.5
20260831140057 53 0 0.0 0.0 0.00 0.00 0.00 93 1012.4
20260831134608 53 0 0.0 1.0 0.00 0.00 0.00 93 1012.3
20260831133055 53 0 0.0 0.0 0.00 0.00 0.00 94 1012.3
20260831131614 52 0 0.0 0.0 0.00 0.00 0.00 94 1012.3
20260831124603 51 0 0.0 1.0 0.00 0.00 0.00 93 1012.2
20260831123054 51 0 0.0 1.0 0.00 0.00 0.00 93 1012.1
20260831121559 50 0 0.0 1.0 0.00 0.00 0.00 92 1012.3
20260831120103 50 0 0.0 1.0 0.00 0.00 0.00 92 1012.3
20260831114601 50 102 0.0 0.0 0.00 0.00 0.00 93 1012.3
20260831113105 49 0 0.0 0.0 0.00 0.00 0.00 93 1012.1
20260831111558 49 0 0.0 0.0 0.00 0.00 0.00 93 1012.1
20260831110101 49 0 0.0 0.0 0.00 0.00 0.00 93 1012.1
20260831104559 50 0 0.0 0.0 0.00 0.00 0.00 93 1012.0
20260831103058 50 0 0.0 1.0 0.00 0.00 0.00 93 1012.0
20260831101614 50 0 0.0 0.0 0.00 0.00 0.00 92 1011.9